EHI
0 0 0 0 0 0 0 1 2 2 2 2 1 1 2 3 5 7 7 5 5 8 12 18 22 20 16 11 8 8 7 6 3 1 0 0 0 0 0 0 0 1 1 0
0 0 0 0 0 0 0 1 1 1 1 1 0 0 1 2 4 5 5 5 6 9 15 21 25 26 22 17 13 10 8 6 3 1 0 0 0 0 0 0 0 1 2 1
0 0 0 0 0 0 0 0 0 0 0 0 0 0 1 2 3 4 4 5 7 12 18 24 29 32 29 22 17 12 9 6 5 2 1 0 0 0 0 0 0 1 2 2
0 0 0 0 0 0 0 0 0 0 0 0 1 0 1 2 3 3 3 4 8 13 20 26 31 34 32 25 18 12 8 8 7 6 4 1 0 0 0 0 0 0 1 1
0 0 0 0 0 1 1 0 0 0 0 0 0 0 1 2 2 2 3 4 6 12 20 26 31 35 34 28 21 14 10 8 8 9 8 4 1 1 1 1 0 0 1 2
0 0 0 0 0 1 2 1 0 0 0 0 0 0 0 1 1 2 2 3 5 11 18 22 27 34 36 33 28 21 15 10 8 8 8 5 2 2 2 1 0 0 1 2
0 0 0 0 0 1 2 1 0 0 0 0 0 0 0 0 0 1 2 2 5 12 17 20 25 34 38 38 35 31 23 15 10 8 7 5 3 2 1 1 1 1 1 2
0 0 0 0 0 1 1 0 0 0 0 0 0 0 0 1 2 3 4 4 7 13 19 23 27 34 40 41 40 37 30 21 15 12 10 8 6 3 2 2 2 3 2 1
0 0 0 0 0 0 0 0 0 0 0 0 0 0 1 2 5 7 8 7 10 16 22 26 27 31 37 41 41 38 34 27 22 19 16 12 9 6 4 4 4 3 2 1
0 0 0 0 0 0 0 0 0 0 0 0 0 0 1 3 6 9 9 9 13 19 25 26 25 27 34 39 40 39 36 32 29 27 23 18 14 11 10 8 6 4 3 3
0 0 0 0 0 0 0 0 0 0 0 0 0 0 0 2 5 8 9 10 13 21 27 26 24 25 32 37 38 38 37 33 31 32 30 24 19 18 16 13 9 6 5 5
0 0 0 0 0 0 0 0 0 0 0 0 0 1 1 3 6 8 10 10 13 21 27 27 24 25 31 35 36 35 35 32 30 31 31 28 25 23 20 16 12 9 8 7
0 0 0 0 0 0 0 0 0 0 0 0 1 2 3 5 7 9 11 11 14 21 27 27 25 28 32 34 34 35 35 33 30 28 28 29 28 25 21 19 17 14 12 11
0 0 0 0 0 0 0 0 0 0 0 1 2 3 4 6 8 9 10 12 15 23 30 28 27 30 32 34 35 35 35 33 30 27 26 27 27 25 23 21 21 20 17 16
0 0 0 0 1 1 0 0 0 0 1 2 3 3 5 8 11 11 13 16 20 28 34 33 31 31 33 33 34 34 35 34 31 28 26 25 25 24 23 23 24 23 22 21
0 0 0 1 2 2 1 1 1 2 3 4 5 5 8 13 16 17 21 26 28 31 35 35 33 32 32 31 31 31 32 31 30 28 27 26 25 24 24 25 26 27 25 24
0 0 0 1 3 3 3 3 3 5 6 7 8 11 15 19 20 22 27 32 33 32 32 31 29 29 29 28 29 29 29 29 28 28 29 28 26 25 24 25 27 26 24 22
0 0 1 2 3 3 3 4 6 8 9 10 12 17 22 24 23 23 27 31 33 32 31 29 27 26 27 29 30 29 28 28 29 31 32 30 28 27 24 23 23 21 20 20
0 0 2 3 3 2 3 5 7 10 13 13 15 19 23 26 26 25 27 30 32 31 30 30 28 27 28 31 32 31 30 30 31 32 30 29 29 28 25 21 18 17 17 18
1 1 2 3 3 2 3 4 5 9 13 14 15 19 22 26 27 27 29 30 28 27 27 27 28 29 31 32 31 30 29 29 30 29 27 26 27 27 24 20 18 16 15 15
2 2 2 3 3 3 3 4 3 5 9 12 14 18 22 24 25 25 25 25 24 23 23 23 25 29 32 32 30 28 26 27 27 26 25 26 26 25 22 19 18 16 15 14
2 3 2 2 2 3 3 3 2 3 6 10 14 17 20 21 20 20 19 19 19 20 21 21 23 26 30 31 30 27 25 24 25 25 25 26 25 22 17 15 15 15 16 16
1 2 3 3 4 5 7 8 7 7 8 10 13 16 18 17 15 14 14 14 15 17 19 19 19 21 25 28 28 26 24 23 23 25 25 24 23 19 14 12 12 13 14 15
1 2 5 7 7 9 12 13 13 11 11 11 12 15 16 15 12 11 12 12 13 15 17 18 17 18 20 22 22 22 22 22 22 23 24 23 21 18 15 12 12 12 12 12
2 3 6 9 10 11 12 12 12 12 11 11 11 12 12 12 11 10 10 11 13 15 16 17 17 17 16 15 15 16 17 19 19 20 20 20 18 16 14 13 11 9 8 8
1 3 7 10 11 10 9 9 10 11 10 9 9 10 9 9 9 9 9 10 12 14 16 16 16 15 13 12 11 12 13 15 17 17 16 16 15 13 13 12 9 7 6 6
Wind_Speed
2 2 4 7 6 6 5 4 3 3 3 4 4 5 9 10 10 11 10 10 11 11 9 10 10 10 8 7 6 6 6 5 4 3 3 3 2 2 2 2 3 4 4 4
4 5 10 6 4 3 4 3 2 0 2 3 3 4 7 9 11 13 14 12 12 10 9 10 9 9 9 8 7 7 6 5 5 4 3 3 3 2 2 2 2 3 4 4
7 9 6 5 5 3 3 6 5 4 2 2 2 1 4 5 5 6 9 11 12 14 14 12 11 9 9 8 8 8 6 6 5 4 3 3 2 2 1 1 1 2 4 4
6 8 7 6 6 5 4 8 8 6 5 2 2 2 5 5 5 7 8 9 12 12 12 12 12 11 11 10 9 7 7 6 5 5 5 5 4 3 3 3 2 2 3 4
7 6 6 7 9 5 5 6 6 6 5 1 1 3 6 1 5 8 9 11 12 13 14 14 13 13 11 10 9 8 7 6 5 5 6 5 4 3 2 2 2 2 2 3
8 6 6 8 8 5 4 4 4 5 4 1 4 3 5 5 9 9 9 11 12 13 14 13 12 11 9 9 8 7 7 6 6 6 5 6 6 5 4 3 3 2 2 2
7 8 6 4 3 2 3 6 3 3 3 3 3 2 7 8 9 9 10 10 11 13 13 13 12 12 11 10 10 9 8 7 6 6 6 6 6 6 6 5 4 4 2 2
4 8 7 4 6 6 4 9 8 6 5 4 2 4 7 5 3 4 6 7 9 11 12 13 13 13 13 13 12 10 10 8 7 7 6 5 6 4 4 5 4 4 4 3
6 8 6 4 3 7 4 4 8 8 3 1 3 4 6 2 2 4 5 6 8 10 12 12 12 12 12 12 11 11 11 9 8 8 6 5 5 5 5 4 4 3 3 3
8 4 6 5 1 1 6 6 5 6 5 3 3 3 4 4 3 3 5 7 8 9 10 11 11 12 11 11 10 10 10 10 8 8 7 6 5 6 5 4 4 4 4 3
6 5 5 3 2 4 1 2 4 4 6 7 3 6 7 8 7 7 7 7 9 10 11 11 10 11 10 9 10 9 9 8 7 8 7 6 6 5 4 4 5 4 4 4
4 6 3 6 5 3 4 6 7 5 3 5 5 7 4 6 6 6 6 5 6 9 10 10 10 10 9 9 9 9 9 8 8 8 7 6 5 5 5 5 4 4 4 4
4 6 2 6 8 5 1 2 3 5 5 4 5 6 2 2 2 3 4 5 6 6 7 7 8 9 9 9 9 9 9 9 8 7 6 5 5 5 5 5 4 4 4 4
5 5 7 8 8 4 3 3 2 5 4 4 7 6 3 3 3 3 3 4 5 6 8 8 9 9 8 8 8 8 8 8 8 7 7 6 7 6 6 5 5 4 4 4
5 4 3 4 4 2 2 2 1 3 7 7 8 9 9 9 7 5 4 4 5 5 7 9 9 9 8 7 7 7 7 6 7 8 7 7 7 6 5 5 5 4 4 5
4 3 2 1 0 1 2 2 2 2 3 5 7 5 4 4 5 5 5 6 6 6 6 7 8 8 8 7 7 6 6 6 6 7 7 6 6 5 5 5 5 5 5 4
2 3 3 1 2 3 3 2 2 1 1 6 7 6 4 4 4 5 5 6 7 6 6 7 8 8 8 8 7 7 6 6 6 6 6 5 5 6 6 5 4 5 5 4
3 3 3 1 3 2 6 2 3 4 2 2 4 5 7 7 5 3 4 6 6 5 5 5 6 6 5 6 5 5 5 6 6 5 5 5 5 5 5 5 5 5 4 4
5 6 3 3 2 3 4 2 1 4 1 1 4 6 7 8 7 5 3 5 5 4 4 4 5 5 5 5 5 5 4 4 4 4 4 4 5 5 5 5 6 5 4 4
4 6 5 4 4 4 6 5 1 6 1 2 5 6 6 6 5 1 2 5 5 3 3 4 4 4 4 3 4 6 4 4 3 3 3 3 4 4 5 5 4 3 4 4
4 3 3 3 3 5 6 5 2 4 5 3 4 6 5 4 4 4 4 5 4 3 4 5 6 4 3 3 5 4 3 3 2 2 1 1 2 3 4 3 3 3 3 3
2 2 1 3 2 5 5 3 2 5 3 4 5 5 6 6 7 6 6 5 5 4 4 5 5 3 2 3 5 4 2 2 1 1 1 1 2 2 2 2 3 2 3 3
1 4 4 4 5 4 1 2 2 5 6 5 5 6 8 7 6 6 5 4 4 4 4 4 5 4 3 2 3 3 2 2 2 1 1 1 2 2 2 3 3 2 2 2
3 2 3 2 1 1 4 5 5 6 6 6 7 8 8 8 5 5 5 4 4 4 3 3 4 3 2 2 2 1 1 1 2 1 1 1 1 1 1 1 2 2 2 3
2 1 3 2 1 4 5 5 5 6 7 7 7 7 7 7 6 4 4 3 4 4 3 3 3 2 1 1 2 1 1 2 1 0 1 0 1 1 1 1 1 2 2 4
1 2 3 3 4 3 1 1 5 6 6 6 7 7 5 6 6 4 4 3 4 4 3 3 3 1 1 1 1 1 1 1 1 0 1 1 1 1 1 1 1 2 2 2
Wind_Direction
309 60 252 241 214 200 190 182 200 223 168 130 151 163 175 178 173 171 173 172 170 175 170 162 160 157 153 149 143 144 147 153 143 134 135 135 145 156 155 163 161 161 159 154
348 266 241 237 247 204 166 156 190 10 88 110 148 199 198 182 184 180 177 177 174 169 164 165 164 161 161 160 154 151 156 158 158 157 154 153 151 159 167 169 162 168 161 157
216 242 243 256 264 219 187 175 178 167 72 29 110 292 226 211 195 183 179 177 175 174 173 172 169 168 164 164 164 163 164 160 161 153 133 118 98 85 97 149 178 186 168 165
240 247 248 257 253 213 224 195 179 160 126 238 183 210 259 206 210 193 185 180 180 178 173 173 172 171 174 175 170 165 166 165 163 151 145 148 152 166 188 180 182 186 175 173
241 231 229 245 242 217 218 192 167 154 138 111 319 142 275 220 214 210 192 184 184 182 177 176 176 176 177 174 170 169 168 170 168 161 160 156 158 172 166 156 164 185 189 183
246 248 215 225 244 210 165 96 61 55 81 119 236 174 250 219 211 206 195 188 185 184 180 177 174 170 170 170 170 170 168 174 172 167 166 166 164 165 157 165 173 187 190 194
286 279 260 222 241 287 110 100 70 9 13 244 238 184 239 237 217 202 191 188 183 182 179 175 172 172 172 172 176 175 173 177 179 174 175 177 172 169 175 178 180 179 181 192
222 272 259 230 190 193 194 150 161 180 200 251 290 221 247 246 204 181 173 175 176 177 179 178 178 177 176 177 178 177 177 180 182 181 184 181 177 175 182 182 178 185 190 197
188 247 273 260 213 169 188 186 169 141 152 149 264 275 313 342 107 132 141 158 169 176 177 177 176 175 175 177 179 178 178 180 184 186 184 184 184 182 186 184 179 188 191 193
172 226 270 270 344 306 175 161 102 117 146 197 255 236 227 235 204 163 168 175 171 171 173 175 177 177 176 177 178 176 178 184 186 187 190 189 192 193 190 179 183 185 188 185
159 171 289 336 203 220 202 118 114 126 151 153 197 257 219 201 199 176 181 183 173 168 171 175 179 179 175 172 175 174 179 182 184 186 190 191 194 194 186 187 193 192 191 185
167 137 232 265 261 223 187 186 149 150 205 158 158 256 243 188 198 175 173 178 170 164 167 169 172 171 171 175 177 179 182 185 190 189 187 189 188 187 187 196 201 195 191 193
131 120 105 334 337 350 327 224 159 141 134 156 160 250 281 172 199 185 168 165 160 158 157 160 163 167 172 176 179 182 184 190 190 185 186 187 186 187 191 194 192 187 185 189
113 116 157 191 218 227 255 269 165 125 149 182 195 211 247 212 191 187 164 165 169 161 157 159 163 162 169 174 177 179 185 189 182 178 182 189 195 193 191 188 188 189 188 192
88 127 170 198 213 188 219 253 227 171 181 177 200 197 209 197 181 166 149 139 133 130 140 154 162 161 164 165 170 173 181 184 180 179 185 194 195 190 186 188 191 194 195 198
59 117 91 11 46 64 326 282 211 204 167 164 162 207 219 177 143 126 128 134 128 129 137 146 151 151 157 161 170 170 174 175 168 175 189 193 188 185 189 191 189 189 199 199
44 92 88 277 313 40 320 280 191 163 146 156 174 204 163 133 141 146 137 133 139 147 149 152 153 157 164 169 170 170 177 171 168 178 188 186 186 186 191 190 186 195 203 200
134 104 122 131 57 209 245 253 123 112 74 87 140 157 154 148 137 111 120 126 131 138 142 147 149 153 159 158 156 157 155 158 166 178 187 190 188 196 198 190 196 204 201 202
145 136 119 118 147 270 295 304 146 117 27 23 129 142 131 121 93 56 54 106 126 138 136 131 133 140 135 141 147 137 139 145 153 173 184 190 191 194 199 202 207 205 197 204
63 104 117 125 143 220 254 284 234 99 9 302 128 141 141 120 114 164 69 88 85 92 112 113 105 104 112 122 127 127 137 135 154 180 190 186 186 194 207 210 206 200 196 205
23 41 112 147 178 250 267 292 56 118 219 231 137 136 128 112 140 147 107 87 88 82 100 102 100 103 116 123 119 121 130 157 187 178 160 170 193 204 206 205 202 197 197 200
152 130 172 142 164 250 300 24 131 191 173 123 108 109 103 108 110 111 105 94 80 76 91 104 103 102 99 110 118 124 153 190 169 163 175 212 228 227 215 206 210 201 193 202
156 181 173 171 205 244 319 123 162 133 120 116 116 118 118 112 115 118 113 102 88 82 84 100 107 96 74 84 114 136 200 184 165 174 226 250 255 250 228 209 209 207 201 204
324 35 88 72 344 58 65 64 63 87 102 110 114 117 114 111 114 113 108 102 92 82 83 87 94 93 69 58 91 134 181 151 146 176 230 252 239 255 263 222 198 203 215 217
277 40 85 108 133 48 39 66 80 79 87 92 95 106 111 112 108 103 100 90 84 75 62 77 89 91 84 66 63 52 60 101 114 171 216 246 205 208 215 194 198 211 227 216
297 146 143 196 204 144 181 145 108 99 94 97 98 91 95 112 116 104 90 82 86 74 55 57 57 72 78 67 41 12 26 76 111 164 237 213 205 204 198 186 311 319 253 258